Praetorian SDA-601

operational
NORAD ID: 65585 Int'l Des: 2025-203 Owner: SDA Country: US
NOTLE

About Praetorian SDA-601

Description loading...

Live Position

Loading 3D Globe...

Upcoming Passes

Altitude History

Altitude vs Time

uPlot chart will show altitude changes over time

Two-Line Element Set

1 65585U 25203X 25311.23622126 .00000165 00000-0 13647-3 0 9993
2 65585 81.3052 216.4084 0007227 83.8776 276.3204 13.84419880 7986
Epoch: Nov 7, 2025 • Age: 10 hours

Current Status

Altitude 951.0 km
Velocity 7.38 km/s
Sub-Earth Point 3.64°N, 120.57°E
Launch Date Sep 10, 2025
Age 0.1 years
Type other

Technical Details

Classification Payload
Mass 300.00 kg
Dry Mass 300.00 kg
Total Mass 300.00 kg
Length 1.00 m
Diameter 0.60 m
Span 2.00 m
Shape Box + panels
Manufacturer YORKSS
Bus Type S-Class
Phase Status In Orbit
Owner/State SDA/US

Large Constellations

Loading constellations...